When you browse on this site, cookies collect data to enhance your experience and personalize the content and advertising you see.
Visit our Privacy Policy to learn more. By continuing to use the site, you agree to this use of cookies and data.
  • In Hungary
  • List of Countries
  • For 7 days
  • Water Temperature
  • Weather Map
  • News
  • Weather Widgets
  • user-avatar
    Login

    Hourly Weather Volovniki

    Today, 18 August, Sunday

    Time Temperature Precipitation Wind Pressure Humidity
    00:00 +13°C° 0 mm 3 mps 742 mmHg 92%
    01:00 +13°C° 0 mm 3 mps 742 mmHg 92%
    02:00 +13°C° 0 mm 3 mps 742 mmHg 93%
    03:00 +13°C° 0 mm 3 mps 742 mmHg 94%
    04:00 +13°C° 0 mm 4 mps 742 mmHg 94%
    05:00 +13°C° 0 mm 4 mps 742 mmHg 95%
    06:00 +13°C° 0.1 mm 4 mps 742 mmHg 95%
    07:00 +13°C° 0.1 mm 4 mps 742 mmHg 96%
    08:00 +14°C° 0.1 mm 3 mps 742 mmHg 96%
    09:00 +14°C° 0.2 mm 3 mps 742 mmHg 96%
    10:00 +14°C° 0.2 mm 3 mps 742 mmHg 95%
    11:00 +14°C° 0.2 mm 3 mps 742 mmHg 95%
    12:00 +16°C° 0.1 mm 3 mps 742 mmHg 92%
    13:00 +17°C° 0.1 mm 3 mps 742 mmHg 90%
    14:00 +17°C° 0.1 mm 3 mps 743 mmHg 87%
    15:00 +18°C° 0 mm 3 mps 743 mmHg 85%
    16:00 +19°C° 0 mm 3 mps 743 mmHg 83%
    17:00 +19°C° 0 mm 3 mps 743 mmHg 81%
    18:00 +18°C° 0 mm 3 mps 744 mmHg 85%
    19:00 +17°C° 0 mm 3 mps 744 mmHg 88%
    20:00 +16°C° 0 mm 2 mps 744 mmHg 92%
    21:00 +15°C° 0 mm 2 mps 744 mmHg 92%
    22:00 +15°C° 0 mm 2 mps 744 mmHg 92%
    23:00 +15°C° 0 mm 2 mps 745 mmHg 93%

    Tomorrow, 19 August, Monday

    Time Temperature Precipitation Wind Pressure Humidity
    00:00 +14°C° 0 mm 2 mps 745 mmHg 93%
    01:00 +14°C° 0 mm 2 mps 745 mmHg 93%
    02:00 +14°C° 0 mm 2 mps 745 mmHg 93%
    03:00 +14°C° 0 mm 2 mps 745 mmHg 93%
    04:00 +13°C° 0 mm 2 mps 746 mmHg 93%
    05:00 +13°C° 0 mm 2 mps 746 mmHg 93%
    06:00 +15°C° 0 mm 2 mps 746 mmHg 88%
    07:00 +16°C° 0 mm 2 mps 746 mmHg 84%
    08:00 +18°C° 0 mm 3 mps 746 mmHg 79%
    09:00 +20°C° 0 mm 3 mps 747 mmHg 75%
    10:00 +21°C° 0 mm 3 mps 747 mmHg 71%
    11:00 +23°C° 0 mm 4 mps 747 mmHg 67%
    12:00 +25°C° 0 mm 4 mps 747 mmHg 65%
    13:00 +25°C° 0 mm 4 mps 747 mmHg 63%
    14:00 +26°C° 0 mm 4 mps 747 mmHg 61%
    15:00 +26°C° 0 mm 4 mps 747 mmHg 65%
    16:00 +26°C° 0 mm 3 mps 747 mmHg 69%
    17:00 +25°C° 0 mm 3 mps 747 mmHg 73%
    18:00 +24°C° 0 mm 3 mps 747 mmHg 76%
    19:00 +21°C° 0 mm 3 mps 747 mmHg 80%
    20:00 +20°C° 0 mm 3 mps 747 mmHg 84%
    21:00 +19°C° 0 mm 3 mps 747 mmHg 85%
    22:00 +19°C° 0 mm 3 mps 747 mmHg 86%
    23:00 +18°C° 0 mm 3 mps 748 mmHg 88%

    Day after tomorrow, 20 August, Tuesday

    Time Temperature Precipitation Wind Pressure Humidity
    00:00 +18°C° 0.2 mm 3 mps 748 mmHg 89%
    01:00 +18°C° 0.2 mm 3 mps 748 mmHg 90%
    02:00 +17°C° 0.2 mm 3 mps 748 mmHg 91%
    03:00 +17°C° 0.2 mm 2 mps 748 mmHg 92%
    04:00 +17°C° 0.2 mm 2 mps 748 mmHg 93%
    05:00 +17°C° 0.2 mm 2 mps 748 mmHg 95%
    06:00 +18°C° 0 mm 2 mps 748 mmHg 92%
    07:00 +20°C° 0 mm 3 mps 749 mmHg 89%
    08:00 +21°C° 0 mm 3 mps 749 mmHg 86%
    09:00 +22°C° 0 mm 3 mps 749 mmHg 82%
    10:00 +25°C° 0 mm 3 mps 749 mmHg 79%
    11:00 +26°C° 0 mm 3 mps 749 mmHg 75%
    12:00 +27°C° 1.1 mm 3 mps 749 mmHg 74%
    13:00 +27°C° 1.1 mm 3 mps 749 mmHg 73%
    14:00 +27°C° 1.1 mm 3 mps 749 mmHg 72%
    15:00 +27°C° 1.1 mm 2 mps 749 mmHg 76%
    16:00 +26°C° 1.1 mm 2 mps 749 mmHg 79%
    17:00 +25°C° 1.1 mm 1 mps 749 mmHg 83%
    18:00 +24°C° 0.2 mm 1 mps 749 mmHg 85%
    19:00 +23°C° 0.2 mm 1 mps 750 mmHg 87%
    20:00 +22°C° 0.2 mm 1 mps 750 mmHg 90%
    21:00 +21°C° 0 mm 1 mps 750 mmHg 91%
    22:00 +21°C° 0 mm 1 mps 750 mmHg 92%
    23:00 +20°C° 0 mm 1 mps 750 mmHg 93%

    21 August, Wednesday

    Time Temperature Precipitation Wind Pressure Humidity
    00:00 +20°C° 0.1 mm 1 mps 750 mmHg 93%
    01:00 +20°C° 0.1 mm 1 mps 750 mmHg 94%
    02:00 +19°C° 0.1 mm 1 mps 750 mmHg 94%
    03:00 +19°C° 0.1 mm 1 mps 750 mmHg 94%
    04:00 +19°C° 0.1 mm 1 mps 750 mmHg 94%
    05:00 +19°C° 0.1 mm 1 mps 750 mmHg 95%
    06:00 +20°C° 0 mm 1 mps 750 mmHg 92%
    07:00 +21°C° 0 mm 1 mps 750 mmHg 90%
    08:00 +23°C° 0 mm 1 mps 751 mmHg 87%
    09:00 +24°C° 0.1 mm 1 mps 750 mmHg 83%
    10:00 +25°C° 0.1 mm 2 mps 750 mmHg 78%
    11:00 +26°C° 0.1 mm 2 mps 750 mmHg 74%
    12:00 +27°C° 0.8 mm 2 mps 750 mmHg 72%
    13:00 +27°C° 0.8 mm 3 mps 749 mmHg 71%
    14:00 +28°C° 0.8 mm 3 mps 749 mmHg 69%
    15:00 +27°C° 0.5 mm 3 mps 749 mmHg 71%
    16:00 +27°C° 0.5 mm 3 mps 748 mmHg 73%
    17:00 +27°C° 0.5 mm 2 mps 748 mmHg 75%
    18:00 +26°C° 0.1 mm 2 mps 748 mmHg 79%
    19:00 +24°C° 0.1 mm 3 mps 748 mmHg 82%
    20:00 +22°C° 0.1 mm 3 mps 747 mmHg 85%
    21:00 +21°C° 0.1 mm 3 mps 747 mmHg 84%
    22:00 +21°C° 0.1 mm 3 mps 747 mmHg 84%
    23:00 +20°C° 0.1 mm 3 mps 747 mmHg 84%

    22 August, Thursday

    Time Temperature Precipitation Wind Pressure Humidity
    00:00 +20°C° 0 mm 3 mps 747 mmHg 84%
    01:00 +19°C° 0 mm 3 mps 747 mmHg 84%
    02:00 +19°C° 0 mm 2 mps 747 mmHg 84%
    03:00 +18°C° 0.1 mm 3 mps 748 mmHg 87%
    04:00 +17°C° 0.1 mm 4 mps 748 mmHg 89%
    05:00 +15°C° 0.1 mm 5 mps 748 mmHg 92%
    06:00 +15°C° 0 mm 6 mps 748 mmHg 91%
    07:00 +15°C° 0 mm 6 mps 749 mmHg 90%
    08:00 +15°C° 0 mm 6 mps 749 mmHg 89%
    09:00 +16°C° 0 mm 6 mps 749 mmHg 84%
    10:00 +17°C° 0 mm 6 mps 750 mmHg 80%
    11:00 +19°C° 0 mm 6 mps 750 mmHg 75%
    12:00 +20°C° 0 mm 6 mps 750 mmHg 72%
    13:00 +21°C° 0 mm 6 mps 750 mmHg 69%
    14:00 +22°C° 0 mm 5 mps 750 mmHg 66%
    15:00 +22°C° 0 mm 5 mps 751 mmHg 68%
    16:00 +21°C° 0 mm 4 mps 751 mmHg 70%
    17:00 +21°C° 0 mm 4 mps 751 mmHg 72%
    18:00 +19°C° 0 mm 3 mps 751 mmHg 75%
    19:00 +18°C° 0 mm 3 mps 751 mmHg 78%
    20:00 +16°C° 0 mm 3 mps 751 mmHg 81%
    21:00 +16°C° 0 mm 3 mps 751 mmHg 82%
    22:00 +14°C° 0 mm 3 mps 751 mmHg 83%
    23:00 +14°C° 0 mm 3 mps 752 mmHg 85%

    23 August, Friday

    Time Temperature Precipitation Wind Pressure Humidity
    00:00 +13°C° 0 mm 3 mps 752 mmHg 87%
    01:00 +12°C° 0 mm 3 mps 752 mmHg 89%
    02:00 +12°C° 0 mm 3 mps 752 mmHg 90%
    03:00 +11°C° 0 mm 3 mps 752 mmHg 91%
    04:00 +12°C° 0 mm 2 mps 752 mmHg 93%
    05:00 +12°C° 0 mm 2 mps 752 mmHg 94%
    06:00 +13°C° 0 mm 2 mps 752 mmHg 89%
    07:00 +15°C° 0 mm 2 mps 752 mmHg 84%
    08:00 +17°C° 0 mm 2 mps 752 mmHg 79%
    09:00 +18°C° 0 mm 3 mps 752 mmHg 74%
    10:00 +19°C° 0 mm 3 mps 752 mmHg 69%
    11:00 +20°C° 0 mm 3 mps 752 mmHg 64%
    12:00 +20°C° 0 mm 3 mps 752 mmHg 62%
    13:00 +21°C° 0 mm 3 mps 752 mmHg 60%
    14:00 +21°C° 0 mm 3 mps 752 mmHg 57%
    15:00 +20°C° 0 mm 3 mps 752 mmHg 62%
    16:00 +20°C° 0 mm 3 mps 751 mmHg 66%
    17:00 +20°C° 0 mm 2 mps 751 mmHg 71%
    18:00 +18°C° 0 mm 2 mps 751 mmHg 76%
    19:00 +16°C° 0 mm 2 mps 751 mmHg 81%
    20:00 +15°C° 0 mm 2 mps 752 mmHg 86%
    21:00 +14°C° 0 mm 2 mps 752 mmHg 88%
    22:00 +14°C° 0 mm 2 mps 752 mmHg 90%
    23:00 +13°C° 0 mm 2 mps 752 mmHg 91%
    Show more